X-SAT

Last updated on Thu Oct 30 2025 00:03:36 GMT+0000 (Coordinated Universal Time)

1 37389U 11015C 25302.52313189 .00000261 00000+0 12877-3 0 9998 2 37389 98.3273 285.9017 0013057 303.4605 56.5326 14.25102140754826
UTC large
Height (km)
Speed (km/s)
/
Latitude / Longitude
Inclination (degrees)
Orbital Period (minutes)
Azimuth
Elevation
Range (km)
Doppler Factor

Next 0 passes for location: London (51.5072 / 0.1276)

Sorry there are no passes over London.